Hourly Data Report for July 28, 2021

RANKIN INLET A
NUNAVUT
Current Station Operator: NAVCAN

62°48'38.000" N
92°06'53.000" W
32.30 m
2303405
71083
YRT

Download Data

Hourly Data (July 2021)
Hourly Data Report for July 28, 2021
TIME
LST
Temp Definition
°C
Dew Point Definition
°C
Rel Hum Definition
%
Precip. Amount Definition
mm

Wind Dir Definition
10's deg

Wind Spd Definition
km/h
Visibility Definition
km
Stn Press Definition
kPa
Hmdx Definition


Wind Chill Definition


Weather Definition


00:00 5.8 2.7 80   32 14 24.1 100.35     Mainly Clear
01:00 4.9 2.2 82   32 16 24.1 100.38     LegendNANA
02:00 6.6 2.7 76   29 14 24.1 100.41     LegendNANA
03:00 6.2 3.2 81   25 8 48.3 100.44     Mostly Cloudy
04:00 6.2 3.6 83   26 11 48.3 100.45     LegendNANA
05:00 6.5 4.5 87   31 11 48.3 100.49     LegendNANA
06:00 8.2 5.7 84   33 17 48.3 100.54     Mostly Cloudy
07:00 9.0 5.9 81   34 18 48.3 100.56     LegendNANA
08:00 9.8 5.0 72   33 23 48.3 100.60     LegendNANA
09:00 10.1 5.3 72   32 21 24.1 100.62     Mostly Cloudy
10:00 10.4 4.0 64   32 27 24.1 100.64     LegendNANA
11:00 10.3 3.5 63   33 19 24.1 100.66     LegendNANA
12:00 10.9 3.6 61   31 26 24.1 100.69     Mostly Cloudy
13:00 10.3 3.2 61   31 29 24.1 100.73     LegendNANA
14:00 10.7 2.5 57   31 28 24.1 100.75     LegendNANA
15:00 11.2 2.5 55   32 28 24.1 100.77     Mostly Cloudy
16:00 11.4 3.0 56   33 27 24.1 100.78     LegendNANA
17:00 11.9 3.0 54   31 27 24.1 100.81     LegendNANA
18:00 11.7 3.3 56   32 25 24.1 100.82     Mostly Cloudy
19:00 11.1 3.7 60   32 24 24.1 100.83     LegendNANA
20:00 10.2 3.8 65   33 17 24.1 100.83     LegendNANA
21:00 8.3 3.2 70   32 16 24.1 100.86     Mostly Cloudy
22:00 7.2 3.5 77   32 16 24.1 100.88     LegendNANA
23:00 8.0 5.2 82   33 14 24.1 100.91     LegendNANA

Notes on Data Quality.

Legend

  • E = Estimated
  • M = Missing
  • NA = Not Available*
  • [empty] = Indicates an unobserved value
Date modified: